SCP
0 0 0 0 0 0 0 0 0 0 0 0 0 0 0 0 0 0 0 0 0 0 0 0 0 0 0 0 0 0 0 0 0 0 0 0 0 0 0 0 0 0 0 0
0 0 0 0 0 0 0 0 0 0 0 0 0 0 0 0 0 0 0 0 0 0 0 0 0 0 0 0 0 0 0 0 0 0 0 0 0 0 0 0 0 0 0 0
0 0 0 0 0 0 0 0 0 0 0 0 0 0 0 0 0 0 0 0 0 0 0 0 0 0 0 0 0 0 0 0 0 0 0 0 0 0 0 0 0 0 0 0
0 0 0 0 0 0 0 0 0 0 0 0 0 0 0 0 0 0 0 0 0 0 0 0 0 0 0 0 0 0 0 0 0 0 0 0 0 0 0 0 0 0 0 0
0 0 0 0 0 0 0 0 0 0 0 0 0 0 0 0 0 0 0 0 0 0 0 0 0 0 0 0 0 0 0 0 0 0 0 0 0 0 0 0 0 0 0 0
-0 0 0 0 0 0 0 0 0 0 0 0 0 0 0 0 0 0 0 0 0 0 0 0 0 0 0 0 0 0 0 0 0 0 0 0 0 0 0 0 0 0 0 0
-0 0 0 0 0 0 0 0 0 0 0 0 0 0 0 0 0 0 0 0 0 -0 0 0 0 0 0 0 0 0 0 0 0 0 0 0 0 0 0 0 0 0 0 0
0 0 0 0 0 0 0 0 0 0 0 0 0 0 0 0 0 0 0 -0 -0 -0 0 0 0 0 0 0 0 0 0 0 0 0 0 0 0 0 0 0 0 0 0 0
0 0 0 0 0 0 0 0 0 0 0 0 0 0 0 0 0 0 -0 -0 -0 -0 -0 0 0 0 0 0 0 0 0 0 0 0 0 0 0 0 0 0 0 0 0 0
0 0 0 0 0 0 0 0 0 0 0 0 0 0 0 0 0 -0 -0 -0 -0 -0 -0 0 0 0 0 0 0 0 0 0 0 0 -0 -0 0 0 0 0 0 0 0 0
0 0 0 0 0 0 0 0 0 0 0 0 0 0 0 0 0 -0 0 -0 -0 -0 -0 0 0 0 0 0 0 0 0 0 0 0 -0 -0 0 0 0 0 0 0 0 0
0 0 0 0 0 0 0 0 0 0 0 0 0 0 0 -0 -0 -0 0 0 0 0 0 0 0 0 0 0 0 0 0 0 0 0 -0 0 0 0 0 0 0 0 0 0
0 0 0 0 0 0 0 0 0 0 0 0 0 0 0 -0 -0 -0 0 0 0 0 0 0 0 0 0 0 0 0 0 0 0 0 0 0 0 0 0 0 0 0 0 0
0 0 0 0 0 0 0 0 0 0 0 0 0 0 0 0 0 -0 0 0 0 0 0 0 0 0 0 0 0 0 0 0 0 0 0 0 0 0 0 0 0 0 0 0
0 0 0 0 0 0 0 0 0 0 0 0 0 0 0 0 0 -0 0 0 0 0 0 0 0 0 0 0 0 0 0 0 0 0 0 0 0 0 0 0 0 0 0 0
0 0 0 0 0 0 0 0 0 0 0 0 0 0 0 0 0 0 0 0 0 0 0 0 0 0 0 0 0 0 0 0 0 0 0 0 0 0 0 0 0 0 0 0
0 0 0 0 0 0 0 0 0 0 0 0 0 0 0 0 0 0 0 -0 -0 -0 -0 0 0 0 0 0 0 0 0 0 0 0 0 0 0 0 0 0 0 0 0 0
0 0 0 0 0 0 0 0 0 0 0 0 0 0 0 0 0 -0 0 0 0 0 -0 0 0 0 0 0 0 0 0 0 0 0 0 0 0 0 0 0 0 0 0 0
0 0 0 0 0 0 0 0 0 0 0 0 0 0 0 0 0 -0 -0 0 0 0 0 0 0 0 0 0 0 0 0 0 0 0 0 0 0 0 0 0 0 0 0 0
0 0 0 0 0 0 0 0 0 0 0 0 0 0 0 0 0 0 -0 0 0 0 0 -0 0 0 0 0 0 0 0 0 0 0 0 0 0 0 0 0 0 0 0 0
0 0 0 0 0 0 0 0 0 0 0 0 0 0 0 0 0 0 0 0 0 0 0 -0 0 0 0 0 0 0 0 0 0 0 0 0 0 0 0 0 0 0 0 0
0 0 0 0 0 0 0 0 0 0 0 0 0 0 0 0 0 0 0 0 0 0 0 0 0 0 0 0 0 0 0 0 0 0 0 0 0 0 0 0 0 0 0 0
0 0 0 0 0 0 0 0 0 0 0 0 0 0 0 0 0 0 0 0 0 0 0 0 0 0 0 0 0 0 0 0 0 0 0 0 0 0 0 0 0 0 0 0
0 0 0 0 0 0 0 0 0 0 0 0 0 0 0 0 0 0 0 0 0 0 0 0 0 0 0 0 0 0 0 0 0 0 0 0 0 0 0 0 0 0 0 0
0 0 0 0 0 0 0 0 0 0 0 0 0 0 0 0 0 0 0 0 0 0 0 0 0 0 0 0 0 0 0 0 0 0 0 0 0 0 0 0 0 0 0 0
0 -0 -0 0 0 0 0 0 0 0 0 0 0 0 0 0 0 0 0 0 0 0 0 0 0 0 0 0 0 0 0 0 0 0 0 0 0 0 0 0 0 0 0 0
Wind_Speed
1 1 1 2 3 5 5 5 6 5 3 4 8 10 8 7 7 6 5 4 4 4 2 2 1 1 1 1 1 1 1 1 0 0 1 1 1 0 0 0 1 1 1 1
1 2 2 3 3 5 5 6 6 4 3 5 8 11 9 8 8 6 5 4 3 3 1 0 1 1 1 0 0 1 1 1 1 1 1 1 1 1 1 0 0 0 1 1
1 1 2 3 3 4 5 5 4 5 6 6 7 9 7 5 6 5 4 3 2 2 1 1 0 1 0 0 1 1 1 1 1 0 0 1 0 0 0 0 1 0 1 1
1 1 2 3 3 3 5 3 4 5 5 4 3 7 5 5 5 5 3 1 0 0 0 0 1 1 1 1 1 1 1 1 1 1 1 2 2 2 2 1 1 1 1 1
1 1 2 2 3 3 3 3 5 6 6 6 6 6 7 4 3 3 2 1 1 1 1 1 0 1 0 0 0 1 1 1 1 2 2 2 2 2 1 1 1 1 1 1
2 2 2 2 2 2 2 4 5 5 3 6 7 6 6 2 2 2 2 1 0 1 1 2 2 1 1 1 1 1 0 1 2 2 2 3 2 2 2 1 2 2 1 1
2 2 1 0 1 1 2 1 2 2 4 6 2 4 6 1 1 2 2 1 1 2 1 1 1 1 1 1 1 1 1 2 2 2 3 3 3 3 3 3 3 2 2 1
2 3 3 1 1 2 3 3 2 3 4 4 3 7 4 0 2 2 2 2 2 2 1 0 0 0 0 1 1 1 1 2 2 2 2 2 2 2 2 2 2 2 2 2
2 2 1 1 2 2 2 3 2 2 4 5 6 4 2 2 0 0 1 1 1 0 0 1 1 0 0 1 1 1 2 2 2 2 2 2 2 2 2 2 1 1 1 1
2 3 2 0 1 3 2 1 1 2 3 6 6 6 4 3 3 2 2 2 2 1 1 1 1 1 1 1 1 1 1 2 2 2 2 2 2 2 2 1 1 1 1 1
2 2 3 2 5 4 3 3 3 4 4 4 6 5 1 3 2 3 3 2 2 1 1 2 1 1 1 0 0 1 2 2 1 1 1 1 1 1 1 1 1 1 1 1
1 2 4 6 3 1 3 4 4 4 5 4 6 7 1 1 1 1 2 2 1 1 2 1 1 1 0 0 1 1 1 2 2 2 1 1 1 0 1 1 1 0 0 1
2 2 3 3 2 1 4 5 5 3 3 5 7 8 1 1 2 2 2 2 2 2 2 2 2 1 1 1 1 1 2 2 2 1 1 1 1 1 1 1 1 1 0 0
1 4 7 8 5 2 5 7 7 6 6 8 13 13 9 6 5 4 4 3 3 3 3 2 2 2 2 2 2 2 2 2 1 1 1 1 2 2 1 1 1 1 0 0
2 5 7 10 10 8 10 11 10 13 13 12 13 13 12 7 5 5 5 4 4 4 3 3 3 3 2 3 2 2 2 2 1 1 1 2 2 2 1 1 1 0 0 0
3 4 4 8 8 9 13 14 14 15 15 16 15 16 10 6 4 4 4 4 5 5 4 3 3 3 3 3 3 3 3 2 1 1 2 1 1 1 1 1 1 0 0 0
4 4 4 7 4 5 12 13 14 11 10 9 15 14 6 6 5 5 4 5 5 5 4 4 4 3 3 3 3 3 3 2 1 1 1 1 1 1 1 1 1 1 0 0
6 5 4 4 2 10 10 2 6 10 11 10 9 7 6 6 5 3 3 3 5 5 5 4 4 3 3 2 2 2 2 2 1 1 1 1 1 1 0 0 0 1 1 1
7 7 5 4 7 12 8 4 4 6 9 7 10 9 7 5 4 4 2 2 4 5 4 3 2 2 2 2 2 2 2 2 1 2 1 1 1 1 1 1 1 1 1 1
4 5 6 6 7 10 6 2 1 2 9 5 6 7 5 3 5 6 2 3 3 3 2 2 1 1 1 2 1 2 2 2 2 2 2 1 1 1 1 2 1 1 1 1
5 6 9 10 10 11 5 2 3 5 8 3 3 4 4 5 7 5 3 3 2 2 2 2 1 2 2 1 1 2 2 3 3 2 1 1 1 1 2 1 1 1 1 1
8 7 8 7 10 12 3 4 6 6 3 3 3 4 5 6 6 5 4 3 3 3 2 1 2 2 2 1 1 2 3 3 1 1 1 1 1 1 1 1 1 1 1 1
9 9 7 9 10 3 4 4 3 2 4 4 4 5 5 6 7 6 5 4 3 3 2 2 2 2 2 1 1 3 3 2 1 1 1 1 1 1 1 2 2 1 1 1
5 3 5 7 8 5 4 4 4 3 4 5 5 5 5 6 6 6 5 5 4 3 3 2 2 2 3 2 2 2 2 1 1 1 1 1 1 1 1 1 1 2 2 2
5 4 6 9 7 5 5 4 4 4 4 4 5 4 4 5 6 6 6 5 4 4 3 2 3 3 4 3 2 2 2 1 1 1 1 1 1 1 1 1 2 2 2 3
5 6 7 9 4 5 5 5 4 4 5 5 5 6 5 5 6 6 5 4 3 3 3 3 3 4 3 3 3 2 2 2 2 2 2 1 1 1 1 1 1 3 3 3
Wind_Direction
265 256 240 266 275 296 297 280 276 285 302 278 260 263 259 245 238 240 237 227 223 233 231 199 156 127 116 118 147 152 154 160 159 200 254 263 249 243 278 141 99 102 121 128
220 242 307 317 297 285 281 279 284 294 316 296 276 271 259 240 232 230 226 224 225 229 199 136 131 103 112 128 146 157 180 174 191 258 247 255 263 234 236 20 76 87 92 123
246 328 295 277 283 281 276 273 291 301 308 265 274 275 240 220 216 215 214 214 208 208 208 213 172 121 82 324 244 224 209 201 198 298 334 320 68 71 43 270 261 185 157 138
279 313 286 279 291 286 269 319 310 297 294 276 257 286 253 212 208 203 206 200 182 200 200 185 161 181 212 266 268 225 205 206 203 211 224 222 206 209 228 216 239 233 182 162
279 325 296 262 286 297 291 313 283 269 265 279 246 254 267 203 206 195 178 159 66 42 63 33 78 190 212 128 298 242 184 212 214 225 235 232 242 225 221 198 212 237 202 169
256 285 309 320 307 290 300 293 274 250 243 257 229 224 268 206 211 166 158 159 113 83 65 44 37 46 32 35 348 320 214 240 233 230 234 231 241 237 215 213 216 226 221 187
263 221 179 322 301 236 282 293 303 275 227 242 202 231 252 272 57 129 146 162 106 87 85 54 40 31 4 348 319 307 306 269 257 241 235 241 245 235 220 217 219 218 216 227
261 253 174 225 257 254 235 238 231 253 265 291 276 241 241 40 45 61 100 109 96 79 58 338 265 206 296 310 307 320 288 267 261 254 254 255 255 238 235 233 225 216 210 224
285 278 23 258 293 288 244 231 273 281 285 273 251 237 245 212 217 321 73 56 57 45 352 302 298 206 191 256 268 286 284 280 267 261 264 259 260 265 263 248 225 210 206 218
313 278 269 282 257 244 281 311 199 219 254 268 264 249 235 207 218 227 262 266 270 289 302 295 298 288 248 244 269 292 279 268 271 274 265 269 266 271 281 258 226 200 189 176
301 244 265 252 221 218 199 227 232 243 244 252 275 265 205 197 210 211 234 241 248 241 254 276 283 271 249 272 285 284 297 299 294 285 289 290 285 303 302 284 263 229 194 169
269 259 256 250 259 304 228 225 204 218 249 246 269 271 314 146 153 209 249 255 262 283 289 276 277 284 287 290 287 277 295 300 291 284 280 291 302 320 293 289 294 290 222 165
175 206 283 289 243 224 239 238 237 239 252 240 246 261 292 342 322 297 281 280 289 292 293 294 287 288 303 304 298 280 275 278 290 291 290 300 305 280 261 270 291 300 252 181
216 220 220 240 268 261 257 247 230 220 232 245 243 260 272 281 287 298 296 290 290 274 275 277 287 300 303 303 303 304 283 265 277 275 267 281 287 285 277 270 261 263 237 155
200 238 244 261 275 275 262 255 237 228 232 242 255 261 271 277 281 291 293 298 303 292 284 282 282 286 297 305 300 295 294 280 261 253 258 272 295 305 305 294 280 267 227 176
205 244 266 268 263 267 269 259 248 244 241 247 262 268 271 281 290 297 293 292 290 288 283 281 286 293 297 304 305 305 300 292 265 242 249 269 287 299 311 314 318 332 218 186
199 203 241 265 284 296 263 241 232 234 234 236 249 260 284 290 283 283 291 294 288 287 284 282 279 272 276 282 289 286 293 305 287 258 254 257 254 265 285 295 346 335 284 213
200 201 227 261 278 246 245 212 218 237 245 239 253 275 280 275 274 277 286 281 291 296 286 276 277 274 273 285 288 286 298 291 265 248 243 243 239 252 288 308 315 311 316 270
212 203 221 228 249 265 268 240 211 234 260 243 250 267 280 297 299 285 283 270 267 278 277 264 265 270 269 281 290 292 295 279 250 248 244 244 229 226 232 239 251 264 275 288
219 208 220 228 243 251 254 220 194 219 267 253 244 263 279 302 278 275 284 283 293 307 312 305 300 280 262 281 297 289 285 280 269 269 263 252 235 221 229 240 248 254 249 263
187 208 221 232 245 257 251 195 142 212 259 299 263 270 268 250 255 287 311 312 306 305 309 319 302 273 262 273 283 276 278 272 279 298 303 290 251 233 234 247 253 236 249 266
189 198 210 216 237 251 192 154 198 239 302 310 287 276 270 276 287 294 293 292 297 300 304 307 295 291 298 295 254 266 270 278 298 310 298 279 270 251 239 218 252 244 216 213
210 207 208 212 229 250 182 212 245 292 286 289 286 283 279 282 283 286 283 280 281 280 285 286 278 289 300 297 261 261 282 297 309 320 290 278 277 263 240 220 221 229 221 213
234 222 242 257 256 253 246 263 282 286 280 289 289 287 283 278 281 283 280 279 278 278 278 279 261 265 280 291 279 264 282 280 224 233 255 255 236 241 246 237 219 216 213 216
237 216 241 258 270 276 258 266 279 286 297 300 298 292 286 287 286 284 279 273 267 269 270 256 242 250 265 276 271 270 262 233 209 222 238 245 242 232 239 253 248 245 242 236
220 219 229 250 259 254 273 288 290 276 278 283 290 294 291 283 282 287 280 271 265 263 267 259 250 252 262 263 262 261 241 212 195 208 216 220 218 227 235 248 293 279 272 278